Theta_e
349 348 348 348 348 347 347 349 350 348 345 346 346 344 345 347 348 349 349 347 347 346 343 340 340 338 335 334 334 335 335 331 329 329 329 336 341 341 343 342 339 340 341 342 341 339 339 340 340 340 340 339 338 337 336 335 336 337 338 338 337 337 336 334 332 331 330 330 331 331 332 333 333 332 332 332 331 330 328 326 327 329 331 332 331
350 348 347 344 345 346 347 350 350 348 347 347 347 344 347 349 348 349 349 346 345 343 340 338 338 336 334 332 334 336 336 334 333 332 331 335 339 338 340 342 340 339 340 342 341 340 339 339 339 339 340 340 340 339 338 337 337 337 337 337 338 339 338 336 334 333 331 330 330 331 331 332 333 332 332 331 331 330 328 326 327 328 330 331 331
348 346 345 344 345 348 350 351 350 349 348 347 347 345 344 345 344 344 344 342 341 342 340 337 336 336 335 334 334 335 336 336 335 336 337 336 337 337 338 341 341 339 338 340 340 340 339 339 339 339 339 340 341 341 340 339 338 338 338 336 337 338 339 337 336 334 332 331 329 329 330 331 332 333 332 333 332 332 331 329 329 329 329 331 331
344 344 344 345 346 349 351 349 345 346 348 345 344 343 341 341 340 338 339 339 340 342 339 337 337 337 337 338 337 336 336 337 336 337 338 337 336 336 337 339 341 341 339 339 339 339 339 340 340 339 339 339 340 341 340 340 340 339 339 338 337 337 338 338 337 336 334 332 330 328 328 329 330 331 332 333 333 333 333 333 332 332 331 331 330
343 344 345 346 348 348 350 350 344 343 346 343 341 342 341 341 339 338 340 340 341 341 338 338 339 337 337 339 338 336 335 337 338 338 338 338 337 336 336 337 338 339 340 340 340 339 339 340 340 339 339 339 339 339 339 340 340 340 339 339 339 338 338 337 338 337 336 334 333 330 328 327 327 328 329 330 331 331 331 332 333 333 333 332 331
344 345 347 350 350 350 350 349 345 342 343 342 342 342 341 341 340 340 341 341 340 339 338 339 339 337 337 337 337 334 332 337 339 337 337 337 337 336 335 336 336 337 338 338 338 339 340 340 341 340 340 340 339 338 338 339 339 339 339 340 340 340 340 339 338 337 337 336 335 333 331 329 328 327 328 328 328 328 329 330 331 332 332 333 333
344 345 349 352 350 351 351 346 344 344 344 344 342 342 342 342 342 341 342 340 339 339 338 338 336 336 336 336 337 332 331 338 338 338 338 337 337 337 336 335 336 337 337 337 338 337 337 339 340 341 342 341 340 337 336 337 338 338 338 339 340 341 341 340 340 339 338 338 337 336 334 333 332 330 329 329 329 329 329 329 329 330 331 332 332
343 344 348 351 351 352 349 343 342 343 344 344 343 343 344 343 342 341 341 339 338 338 338 337 336 336 336 337 336 332 333 337 338 338 338 338 338 338 338 337 335 333 333 335 339 336 334 336 337 339 341 342 341 339 336 335 335 335 336 337 338 339 340 340 340 340 339 339 338 338 336 334 333 333 333 332 332 331 331 330 330 330 330 330 331
343 344 344 347 351 351 345 342 344 342 342 343 343 344 345 344 342 340 339 337 336 337 338 338 337 337 338 339 336 333 334 335 336 338 338 338 339 338 339 338 336 334 333 335 339 339 336 336 336 337 340 342 342 341 339 336 334 333 333 334 335 335 337 338 339 339 338 338 338 338 338 337 336 335 334 334 334 333 332 332 332 332 331 331 330
344 343 343 346 351 349 344 344 346 344 343 343 343 345 345 342 340 339 337 334 334 336 337 336 336 337 339 340 335 332 335 335 335 337 338 339 338 338 339 338 338 338 337 338 340 340 339 338 337 337 338 340 341 341 341 339 337 335 333 331 330 330 332 335 336 337 338 338 338 338 339 339 339 338 336 336 335 335 334 333 332 332 332 332 332
342 343 344 347 348 346 346 346 347 345 343 343 344 346 343 338 334 332 332 331 331 333 333 332 335 338 338 339 336 331 333 336 336 337 338 338 337 337 337 338 339 338 337 339 340 339 337 337 338 339 339 338 338 339 339 338 337 336 334 331 329 329 330 332 333 335 337 338 338 338 339 339 340 340 339 338 337 336 336 335 334 333 333 333 332
343 344 345 347 346 344 345 346 346 345 344 344 345 342 337 330 325 323 325 330 334 333 331 333 337 338 338 339 338 333 332 335 337 338 337 337 335 335 336 336 338 338 336 337 338 338 336 335 336 339 340 339 338 337 336 335 335 334 333 332 331 331 331 332 333 334 335 337 338 338 339 340 341 341 340 340 339 338 337 336 336 335 335 334 333
346 348 348 348 346 346 347 346 346 345 344 344 340 334 329 324 323 325 328 333 338 337 334 333 336 338 338 338 338 337 335 336 337 337 336 336 334 333 334 334 335 336 335 333 333 335 336 336 337 338 338 339 340 339 338 337 336 335 335 334 333 332 333 334 334 333 334 337 338 338 339 340 340 341 340 340 340 340 339 338 337 336 336 336 335
349 349 348 348 347 348 347 345 345 343 341 338 333 331 328 325 326 331 334 335 337 337 335 334 336 339 338 335 336 338 337 336 336 335 335 334 332 332 331 330 331 332 333 333 333 332 332 333 334 334 335 335 337 337 336 337 336 335 335 336 336 336 336 336 337 337 337 338 336 335 338 339 339 339 340 340 340 340 339 339 339 338 338 337 336
349 347 346 346 345 345 344 343 341 338 335 331 332 333 330 327 328 332 337 337 336 335 334 335 336 338 336 334 334 335 336 336 335 334 334 333 331 331 330 328 326 325 327 331 333 330 327 326 328 329 330 330 331 331 331 332 331 330 332 334 337 339 339 339 340 340 339 338 336 337 338 338 339 339 340 341 340 340 340 340 340 340 340 340 338
346 345 345 344 342 343 342 341 337 332 329 329 332 335 333 332 333 334 336 338 338 337 337 336 334 336 336 336 335 332 333 336 335 335 334 333 332 330 329 328 325 322 322 326 327 327 324 322 323 324 325 326 327 328 328 329 328 328 329 331 333 336 339 341 342 341 340 339 339 339 339 340 341 341 341 342 341 340 340 340 340 341 341 341 340
344 345 345 341 340 342 339 335 332 328 327 329 332 334 334 336 338 336 337 338 338 338 338 336 335 334 334 335 336 334 335 336 334 335 335 333 332 330 330 329 326 321 319 320 321 323 325 322 320 320 320 321 322 323 324 324 325 325 326 327 328 330 333 337 340 342 341 341 341 341 340 341 341 341 342 342 341 341 341 341 341 341 341 340 340
344 344 342 339 339 339 334 331 329 326 326 329 331 332 333 337 337 336 338 337 336 337 337 336 334 331 330 331 333 334 336 336 335 335 334 332 331 330 330 330 328 325 323 323 321 322 323 322 320 320 319 319 318 318 319 320 321 322 323 323 324 325 327 330 334 338 340 341 341 341 341 341 341 342 342 343 342 342 342 342 341 341 341 340 340
343 343 341 339 338 334 331 330 327 327 328 328 329 330 334 337 336 335 337 336 335 335 336 335 334 333 333 333 333 334 336 336 335 334 333 332 331 329 329 330 329 329 328 327 326 324 321 320 319 319 319 319 318 318 317 317 318 319 320 320 321 322 323 324 327 330 334 337 339 340 341 341 342 343 343 343 343 343 343 342 342 342 342 341 341
340 340 339 338 336 332 332 330 326 326 328 328 329 334 337 337 335 334 335 335 334 334 335 335 336 337 336 336 336 336 336 334 332 330 332 333 332 330 329 329 330 330 330 329 329 326 323 321 319 318 320 319 317 318 318 317 316 317 317 318 319 319 320 321 323 324 326 329 333 336 338 340 341 342 342 343 343 343 343 343 341 342 342 341 340
336 337 338 337 335 334 335 331 326 328 330 333 335 337 337 332 331 335 335 333 331 331 333 334 335 337 337 337 337 336 335 334 332 331 332 333 332 330 330 330 331 330 330 330 329 328 327 324 321 320 322 322 320 319 319 317 317 316 316 316 316 316 318 319 320 321 322 323 325 327 330 333 336 338 339 340 340 341 342 343 342 342 341 341 340
336 338 339 339 336 336 337 331 328 333 335 336 338 335 331 327 329 333 333 332 331 329 331 332 333 334 335 336 336 335 335 334 333 333 334 333 333 332 330 330 331 330 331 331 329 329 328 325 324 322 322 323 324 324 322 319 317 318 318 317 316 315 315 316 317 318 319 320 321 322 323 324 326 328 331 333 335 337 338 340 341 342 342 342 341
337 339 339 340 338 337 337 333 331 334 334 333 335 333 331 330 329 327 326 328 328 327 328 327 327 329 332 333 334 334 334 333 333 333 333 332 333 332 330 330 331 331 331 331 330 330 330 328 326 325 323 323 325 324 322 318 317 318 319 319 319 318 316 315 315 316 316 317 318 319 320 320 321 321 323 324 327 329 331 334 336 337 339 341 342
341 342 341 342 342 339 337 334 332 333 332 331 332 331 333 333 328 321 321 323 323 324 325 326 327 329 332 334 334 333 333 333 333 332 332 332 332 332 331 331 331 331 331 331 331 330 330 329 328 326 324 323 324 321 318 321 322 319 318 320 320 320 319 317 316 316 316 316 316 317 318 318 319 319 320 320 321 322 324 326 328 330 333 335 338
345 345 343 342 342 340 336 331 329 329 331 331 329 327 330 333 328 324 323 324 324 323 322 327 330 330 332 334 334 333 333 333 333 332 333 332 332 332 332 331 332 332 331 331 331 330 330 329 328 327 325 323 323 321 318 323 326 321 319 322 321 321 321 319 318 318 317 317 317 317 317 317 318 318 319 319 319 320 320 321 322 324 326 328 331
346 345 344 342 341 341 335 326 323 324 327 327 326 324 325 329 330 329 330 331 331 328 326 330 332 331 332 333 333 333 332 332 333 333 332 332 332 332 332 333 332 332 331 331 331 331 330 330 329 329 327 323 323 321 318 322 325 322 320 321 322 322 322 320 318 317 317 317 317 318 318 318 318 318 318 318 318 319 319 319 320 320 322 323 325
344 345 344 342 341 340 333 324 320 321 323 325 327 327 322 324 330 331 333 334 332 330 329 330 332 331 333 332 332 333 333 333 333 333 332 332 332 332 332 333 333 332 331 331 331 330 330 330 329 329 329 327 325 324 321 320 322 322 321 321 321 322 322 321 318 316 316 316 317 317 318 318 318 318 318 318 318 318 318 319 319 319 320 320 321
343 344 344 342 341 338 331 326 324 324 325 324 327 331 328 328 331 331 332 333 332 331 331 331 331 332 332 332 332 332 333 333 332 332 332 331 331 330 330 332 332 332 332 331 330 329 328 329 329 329 329 329 329 328 325 322 322 323 323 322 321 321 322 322 318 316 315 316 316 317 318 318 318 318 318 318 318 318 318 318 319 319 319 319 320
341 342 342 340 338 334 330 329 329 329 329 326 325 329 331 331 333 332 332 334 333 332 332 333 333 333 333 333 332 331 331 331 330 331 332 329 329 329 329 329 330 330 332 331 330 329 328 328 328 329 329 329 330 330 328 326 327 326 324 322 321 320 321 320 318 315 315 315 316 317 318 318 318 318 318 318 317 318 318 318 318 318 319 319 320
340 339 339 337 333 330 328 330 332 331 331 331 329 329 330 332 333 333 333 334 334 333 332 331 331 332 332 332 332 331 331 330 331 332 331 328 328 328 328 328 327 327 328 330 331 330 330 329 329 329 329 329 330 330 329 328 328 326 323 322 321 320 320 319 317 315 314 315 316 317 318 318 318 318 318 317 317 317 317 318 318 319 319 319 319
340 335 333 331 327 325 325 328 332 333 331 331 331 330 329 330 332 333 334 333 333 334 333 332 331 332 332 331 331 331 331 331 331 331 330 329 328 328 329 328 327 327 326 327 330 330 330 330 330 329 329 329 329 328 328 327 326 324 323 323 322 321 320 319 318 317 316 316 316 317 318 318 318 318 317 317 317 317 317 317 317 318 319 319 319
340 332 328 327 324 323 327 331 335 335 333 333 333 332 329 327 328 331 333 333 334 333 332 332 332 333 333 331 331 331 332 331 329 330 330 330 329 329 330 329 328 329 329 329 328 328 328 329 329 328 328 328 328 326 325 324 324 324 324 323 323 322 321 320 319 318 317 317 317 317 318 318 318 317 316 316 316 317 317 317 317 317 318 318 319
341 332 326 325 322 320 325 331 333 331 328 328 329 329 327 326 326 327 329 331 333 333 332 332 332 332 332 331 331 331 332 331 330 330 331 331 330 330 330 329 329 330 332 331 329 326 326 326 328 328 327 327 327 325 324 324 323 323 324 323 323 322 320 320 319 319 319 318 318 319 319 318 317 316 316 316 316 317 318 318 318 318 317 317 318
342 333 326 323 320 318 321 325 327 324 321 320 321 323 325 327 328 329 331 332 332 332 332 332 332 332 331 331 330 330 331 332 330 329 330 331 330 330 330 330 330 329 330 330 330 328 326 324 325 326 328 328 328 326 325 325 323 323 324 325 324 322 321 320 320 321 322 320 319 319 319 318 317 315 316 316 317 318 318 318 318 318 318 317 317
343 333 325 322 319 319 320 321 322 322 320 319 319 320 323 326 327 328 331 333 333 333 333 332 332 332 331 331 331 330 331 332 330 329 330 330 329 329 329 328 328 328 327 327 328 328 326 324 323 324 326 328 328 326 324 323 323 323 325 326 325 322 320 320 320 322 324 324 322 321 320 318 316 316 316 316 317 319 318 318 318 318 318 318 318
344 332 324 322 319 318 319 320 320 319 319 319 320 321 323 324 324 324 328 331 332 333 332 331 330 330 330 332 331 330 330 331 331 330 330 331 330 330 329 329 329 330 328 327 327 328 327 326 324 323 323 323 324 324 324 323 323 323 324 326 325 323 321 321 321 323 324 324 324 323 322 320 319 318 319 319 319 319 319 319 319 319 319 319 318
342 333 323 319 319 320 324 327 326 323 321 320 321 323 324 324 323 323 327 332 333 332 330 327 324 325 328 330 331 330 330 330 330 331 332 332 332 331 330 329 330 331 330 329 327 327 328 328 324 322 322 322 322 323 324 325 325 324 324 325 324 324 324 324 324 324 324 324 324 325 325 324 323 322 322 321 321 320 320 321 321 320 319 319 318
341 336 326 319 320 326 328 329 329 328 325 321 320 323 325 324 324 323 327 332 333 332 330 325 323 326 329 330 331 330 329 329 330 331 331 332 332 332 331 329 328 329 330 331 330 329 330 331 329 326 325 325 325 324 323 324 325 325 324 324 325 326 326 326 325 325 325 325 325 325 325 325 324 324 323 323 322 322 321 321 321 321 320 320 318
338 334 328 322 323 328 329 327 327 328 327 323 321 324 325 325 325 325 328 332 332 332 331 328 328 330 331 331 331 330 330 330 331 331 332 332 332 333 332 330 330 330 331 333 333 332 332 333 332 330 328 328 328 326 324 324 326 327 326 326 326 326 325 325 325 325 325 325 325 325 325 325 325 324 324 323 322 322 322 322 321 321 321 320 319
330 329 328 323 322 325 327 326 326 327 327 324 322 323 325 325 325 326 328 331 332 332 332 332 331 330 331 331 330 329 330 331 330 330 331 332 332 331 331 331 330 330 331 332 333 333 333 331 330 330 330 330 330 329 327 327 328 327 326 326 326 325 325 326 325 325 324 324 324 324 325 325 325 325 325 324 322 322 322 322 322 322 321 321 321
329 335 335 327 322 324 325 326 326 326 327 326 323 322 323 323 324 326 328 329 331 333 333 333 333 332 333 334 332 331 330 328 327 329 329 330 329 328 328 328 327 327 328 328 329 331 331 329 329 329 328 329 331 330 328 327 327 326 325 326 326 326 326 325 325 324 323 323 323 324 325 325 325 324 323 323 322 322 323 323 323 323 323 322 322
330 340 342 334 325 324 324 325 325 326 325 326 324 322 321 322 324 326 328 327 328 330 331 333 334 334 334 334 334 333 331 327 328 330 330 330 329 328 326 325 324 325 325 325 325 328 328 328 328 328 328 328 329 329 328 327 326 326 326 326 327 326 325 324 324 324 323 323 324 325 325 324 322 322 321 321 322 323 323 324 323 323 322 322 321
326 334 340 340 333 327 325 324 325 325 325 326 325 322 322 324 325 327 328 328 328 328 329 331 332 331 331 331 331 332 331 330 331 332 332 331 329 327 325 324 324 324 325 324 324 324 326 327 326 325 326 327 326 327 327 326 325 326 326 326 326 326 326 325 325 324 324 324 325 326 325 323 321 321 320 320 322 322 322 322 322 321 320 320 321
324 327 335 340 337 330 325 323 325 326 324 325 324 322 324 327 327 328 329 330 330 330 329 328 328 329 330 330 331 330 331 332 332 331 331 330 328 326 324 324 325 325 325 324 323 323 324 325 325 323 324 324 323 324 324 323 324 324 324 322 322 325 326 325 324 325 325 325 325 325 324 322 321 320 320 321 322 322 321 321 321 320 320 320 320
323 323 328 337 339 334 328 324 326 327 325 323 324 324 327 330 329 330 331 331 332 331 330 328 328 329 330 331 331 331 331 332 331 329 329 328 328 327 325 325 325 325 325 324 323 323 323 322 323 322 320 321 322 321 320 321 323 322 322 322 322 322 325 325 324 325 325 325 324 324 323 323 322 322 321 321 321 321 320 319 319 319 320 320 320
325 322 326 334 338 336 330 326 328 329 324 323 325 327 330 333 331 329 329 330 331 331 329 329 329 331 332 332 332 331 331 331 329 328 328 328 328 328 326 325 326 325 326 326 325 325 325 323 323 323 323 324 324 322 319 318 319 319 321 322 322 322 324 324 324 324 324 323 323 323 323 323 323 322 321 321 320 320 320 320 318 318 319 319 320
328 324 328 334 335 332 330 330 330 328 325 327 330 331 333 333 328 324 324 328 331 331 331 331 332 332 332 331 331 331 330 329 328 327 328 326 326 326 325 325 326 325 326 327 327 327 326 324 323 323 324 324 322 318 315 314 314 315 319 321 322 322 323 323 323 322 323 323 322 322 322 322 322 321 321 320 320 320 320 320 318 317 318 320 321
331 327 331 335 333 331 333 334 331 328 328 331 333 334 334 330 324 320 321 326 332 333 332 333 334 333 331 329 329 329 328 328 327 327 327 326 325 325 325 326 326 325 325 326 326 325 323 322 322 322 321 318 315 313 312 313 315 318 320 321 321 322 322 322 322 322 322 322 321 321 322 322 321 321 321 320 320 320 319 318 318 318 319 321 322
339 336 336 335 330 330 335 335 331 329 330 333 334 333 331 326 321 320 322 326 332 333 332 333 332 330 329 328 328 328 327 327 327 327 326 326 325 325 325 326 326 325 325 325 325 324 323 323 322 319 316 314 313 312 313 316 319 320 320 320 321 321 321 321 322 322 321 321 320 320 321 321 319 319 320 321 320 319 318 318 318 320 320 321 323
342 341 339 337 335 335 337 336 333 332 333 334 332 328 325 323 322 322 323 327 332 333 331 330 328 326 326 326 327 326 326 326 327 326 326 325 324 323 324 325 325 325 325 325 325 324 323 321 318 316 315 315 314 314 315 317 321 321 320 321 321 321 321 321 321 320 320 320 319 319 319 319 316 317 319 320 319 317 318 319 319 320 321 322 324
342 341 341 340 339 339 338 337 335 334 335 334 328 324 323 322 322 323 325 329 331 329 327 325 323 323 323 324 325 325 325 326 326 325 324 322 322 323 324 324 324 324 324 324 323 321 318 315 315 317 318 318 317 317 317 319 320 320 320 321 321 320 320 320 320 319 319 319 319 319 319 317 314 316 319 319 318 318 319 319 319 320 321 322 324
Wind_Speed
9 8 8 8 7 7 6 5 6 6 6 5 6 7 6 6 6 6 7 8 8 10 11 11 11 12 12 12 13 12 13 13 11 9 9 9 9 11 12 12 11 10 9 8 9 9 10 11 11 12 12 12 12 11 11 10 9 10 10 10 10 9 9 8 8 8 9 10 11 11 11 11 11 10 10 10 10 11 10 10 10 10 10 9 9
10 10 10 9 8 8 7 6 6 6 6 5 7 7 6 5 6 6 7 9 10 11 12 12 11 11 12 13 12 10 11 12 10 9 9 9 9 10 11 12 12 11 9 9 8 9 10 10 11 12 13 13 13 12 11 11 11 11 11 11 11 11 10 9 9 9 8 9 10 11 12 12 12 12 12 12 12 12 11 11 11 11 11 11 10
12 11 11 10 9 7 6 7 8 7 6 7 7 7 7 8 8 9 10 11 12 11 11 11 11 11 12 13 12 10 10 9 9 8 8 9 9 9 9 11 12 12 11 9 9 9 9 10 11 12 13 13 13 13 12 12 11 12 13 13 12 12 11 11 11 10 10 9 9 10 12 13 13 13 13 12 12 12 12 12 12 12 12 12 11
13 12 11 10 9 8 8 10 10 7 7 9 8 8 9 10 11 12 12 13 11 10 11 10 9 9 10 11 11 11 10 9 8 7 7 8 9 9 9 9 11 12 12 11 10 9 9 10 11 12 13 13 13 13 13 12 11 12 13 14 14 14 13 13 12 11 11 11 10 10 11 12 13 13 13 13 13 13 12 13 12 13 13 13 13
13 12 11 10 10 9 9 11 10 8 9 10 9 9 11 11 12 12 11 11 10 9 10 8 8 9 8 9 10 11 10 8 7 6 6 6 8 9 9 10 10 11 12 13 12 11 10 10 11 11 12 12 12 13 14 13 12 12 13 14 14 15 15 15 14 13 13 12 12 11 11 11 12 12 13 13 13 13 13 13 13 13 14 14 14
12 11 11 10 10 9 10 11 11 11 11 10 9 10 11 11 11 11 9 9 9 9 9 8 8 8 8 9 10 10 9 7 6 6 5 5 6 7 8 9 11 11 11 12 12 13 12 12 11 11 12 12 12 13 14 13 12 12 13 14 15 15 15 16 16 16 15 14 13 13 13 12 12 12 12 12 13 13 12 12 13 14 14 14 15
12 11 11 10 9 9 11 13 13 11 11 11 11 11 11 10 10 9 8 8 9 9 9 9 9 9 9 9 9 9 8 6 6 6 5 5 5 5 6 7 9 10 11 11 11 12 13 13 13 12 13 13 13 13 14 14 13 13 14 15 15 15 15 15 16 18 18 17 16 15 14 13 13 13 13 13 13 13 13 13 13 13 14 14 15
13 12 12 11 10 11 12 13 14 12 12 12 13 11 10 9 9 9 8 9 9 9 10 11 11 9 9 8 8 8 7 5 6 5 5 5 4 4 4 4 5 7 9 10 10 12 12 12 14 14 14 14 14 14 14 15 15 15 15 15 16 16 15 15 17 18 19 19 19 19 17 15 14 14 14 14 14 14 14 14 14 14 15 15 15
14 13 14 13 11 12 14 14 15 15 14 14 14 11 8 8 9 9 10 10 11 10 10 11 11 8 7 6 6 7 5 5 4 4 4 5 4 4 4 4 4 3 4 6 8 11 11 10 11 12 13 14 15 15 15 16 16 17 16 16 16 17 17 17 18 19 19 19 20 20 20 20 18 16 16 15 15 14 14 15 15 15 16 16 16
15 15 15 15 13 15 17 16 16 17 15 15 14 10 8 9 10 11 12 13 12 11 10 11 11 8 6 6 6 5 4 4 3 3 3 4 5 5 5 6 6 5 2 2 4 8 9 8 8 9 11 13 14 15 16 16 17 17 17 18 18 18 19 19 19 19 19 19 20 20 20 22 22 21 19 18 17 16 15 15 15 16 16 16 17
16 17 18 18 17 18 19 19 18 17 15 15 11 8 9 11 13 14 15 14 13 11 11 11 10 7 6 6 6 5 3 2 2 3 3 3 4 4 5 6 6 6 5 2 1 4 7 7 6 7 9 11 12 14 15 16 17 17 18 19 19 19 20 21 21 20 20 21 21 20 19 21 21 21 22 21 21 19 18 17 16 16 16 16 17
18 19 20 20 20 19 19 19 18 16 15 13 10 9 13 15 15 15 13 12 11 9 9 9 8 7 6 5 6 4 3 2 2 2 3 3 4 3 3 5 5 5 5 3 2 2 3 5 6 6 8 8 10 11 13 14 15 16 17 18 19 20 21 22 22 22 21 21 22 21 21 21 20 20 21 21 22 22 21 19 18 17 17 17 18
18 19 20 21 20 19 19 18 17 15 13 11 11 14 16 15 13 11 8 7 7 7 7 7 7 7 5 5 5 4 3 3 2 2 2 2 3 3 3 3 4 4 4 4 4 4 3 4 4 5 6 7 7 8 9 10 11 12 13 15 17 19 20 21 22 22 21 20 22 24 23 22 21 20 20 20 21 22 22 22 21 20 19 18 18
18 18 19 19 17 17 17 15 14 12 12 13 15 15 14 12 9 6 5 5 5 6 6 6 7 6 5 6 6 4 3 1 2 1 2 2 3 3 3 3 3 2 2 3 4 4 4 6 5 5 7 7 8 8 8 9 10 11 10 11 12 14 16 18 19 19 20 21 23 24 24 24 23 22 22 22 22 23 23 23 23 23 22 20 20
18 17 16 14 13 14 14 11 10 11 13 15 14 11 9 8 6 5 4 4 5 6 5 4 4 5 5 5 4 5 4 1 2 2 1 2 3 3 4 4 4 3 3 3 3 3 4 6 6 7 8 9 10 10 10 11 11 11 11 11 11 11 13 14 16 17 19 21 22 23 24 25 24 23 23 23 23 23 23 23 24 25 25 24 23
17 15 12 10 11 11 10 9 10 13 14 13 10 8 7 5 5 5 4 4 4 5 5 3 3 3 4 4 3 5 4 1 1 2 1 1 3 3 4 5 5 5 4 4 4 4 4 5 5 6 6 7 8 10 11 12 12 12 12 12 12 12 12 13 15 16 18 19 20 22 24 24 24 24 24 24 24 23 23 24 24 24 25 26 26
12 11 10 9 9 9 9 10 13 14 12 10 9 7 6 5 5 5 4 4 3 4 5 4 3 3 3 4 4 4 2 1 1 2 2 1 2 3 4 5 5 6 6 5 5 5 5 6 6 6 6 6 7 8 9 10 11 11 12 12 12 13 13 14 15 16 17 17 18 19 21 23 24 24 24 24 24 24 23 24 24 25 25 26 27
9 10 10 10 10 10 11 12 13 13 11 10 7 6 6 6 5 5 5 4 4 4 4 5 5 4 2 3 3 2 3 3 3 2 1 1 2 2 4 5 5 7 7 7 6 5 5 6 7 7 7 7 7 8 9 10 10 10 11 12 12 13 13 14 15 15 16 16 17 18 19 21 22 23 24 24 24 24 24 24 25 25 26 26 26
11 11 10 11 11 12 12 13 13 13 11 8 6 6 7 6 6 6 5 5 5 3 3 4 5 4 2 2 2 2 2 2 4 4 2 2 2 3 3 5 5 5 6 6 6 7 7 7 7 7 8 8 8 7 7 9 10 10 11 10 10 11 12 13 14 15 16 17 17 19 19 20 21 21 22 22 23 24 24 25 26 26 26 27 27
12 11 11 12 12 13 13 13 14 12 10 7 6 6 6 6 6 6 6 6 5 4 3 3 3 3 3 2 2 2 1 1 2 2 3 4 4 4 4 6 5 4 5 4 5 8 9 8 8 7 7 8 9 8 7 8 9 10 11 11 10 10 10 11 11 12 14 16 18 19 20 21 22 22 22 23 23 24 24 25 27 27 27 28 29
13 13 12 12 13 14 13 13 13 11 9 6 6 6 6 7 7 5 5 6 6 5 4 4 3 3 3 2 1 1 1 1 2 2 2 4 5 5 6 7 6 6 6 5 5 7 7 8 8 6 5 6 8 8 8 9 9 10 11 12 12 12 12 11 11 11 11 13 15 17 20 22 23 24 25 25 25 25 25 25 26 28 29 30 30
14 13 13 13 14 14 13 12 10 10 9 8 8 8 7 8 8 6 5 5 5 4 3 3 3 3 3 1 1 1 1 2 3 3 3 3 5 6 8 8 8 9 8 7 7 7 8 9 7 5 4 4 5 6 7 10 11 11 11 12 13 14 14 14 13 13 12 12 12 14 16 18 20 22 24 26 27 28 28 27 28 28 29 30 31
14 14 14 13 13 14 12 10 9 10 11 10 8 7 6 7 8 8 7 5 4 3 2 2 3 4 3 3 2 2 2 3 3 3 4 4 6 8 9 9 10 11 9 10 11 8 9 9 6 5 6 5 4 5 7 10 11 11 12 12 13 13 15 15 15 15 15 15 15 15 15 16 17 18 20 22 25 27 29 30 31 31 31 31 32
13 12 12 12 11 12 11 9 9 10 10 9 8 7 5 6 7 7 7 6 5 4 3 2 3 4 3 3 4 3 4 4 4 5 5 5 6 8 9 9 11 11 10 12 13 10 9 9 8 8 7 7 7 8 8 8 10 11 12 12 12 13 13 14 15 16 16 16 17 17 18 18 18 19 19 20 21 23 25 28 30 32 33 33 33
11 10 12 12 10 9 9 10 9 9 10 10 9 8 7 7 7 7 6 6 5 4 4 3 4 4 3 4 4 4 6 6 6 6 6 7 8 8 10 10 11 12 11 12 13 12 11 10 9 9 9 8 8 10 10 7 9 12 12 12 13 12 13 14 14 15 16 17 18 18 19 19 20 20 21 22 23 23 24 25 26 29 32 34 35
11 11 12 13 11 9 9 10 9 9 10 10 9 9 8 7 7 7 6 6 6 5 5 5 5 6 5 6 6 6 7 7 7 8 8 9 9 10 11 11 12 13 12 11 11 13 13 12 10 11 12 10 9 11 13 10 11 13 13 14 15 14 14 14 14 15 16 17 17 18 19 19 19 20 21 22 24 25 25 26 26 27 28 31 34
11 10 11 11 9 9 10 9 9 9 10 10 9 9 9 8 7 7 7 7 7 7 7 7 7 8 8 8 8 7 8 9 9 10 10 10 10 11 11 12 13 14 13 12 12 13 14 14 12 12 13 13 11 13 15 14 14 15 15 15 16 17 17 15 15 16 16 17 17 18 18 18 18 19 20 21 23 24 26 27 27 28 28 29 31
11 9 10 10 9 10 11 9 8 9 9 10 9 8 8 8 8 8 8 8 8 8 8 8 9 9 9 10 10 9 10 10 11 12 12 12 12 12 12 12 13 14 14 14 14 14 14 14 14 13 14 16 14 14 15 16 16 16 16 17 18 19 20 18 17 17 17 17 17 18 18 18 18 18 19 20 22 23 25 26 27 29 29 30 31
12 10 10 12 12 12 11 9 9 9 9 9 9 9 9 9 9 9 8 8 9 9 9 9 10 10 10 11 12 11 11 11 12 12 12 13 13 13 13 12 13 14 15 15 15 15 14 15 15 15 16 17 15 14 16 17 17 17 18 18 19 19 20 20 19 18 18 18 18 18 19 19 19 19 20 21 22 23 23 25 26 28 29 31 32
13 12 12 13 13 12 11 10 10 10 9 10 9 9 10 9 10 11 10 10 11 11 10 11 11 11 11 12 12 12 12 11 12 13 13 13 13 12 12 12 13 15 16 18 18 15 14 15 16 16 18 19 18 18 19 19 19 20 19 19 19 19 19 20 21 20 20 19 19 20 20 21 21 22 22 23 23 23 23 23 24 26 28 29 31
14 13 13 13 12 12 11 10 10 10 10 10 11 11 11 10 10 10 11 11 12 12 11 12 12 12 12 12 12 12 12 12 13 13 13 12 12 12 12 13 14 15 17 19 21 19 16 16 18 20 20 21 21 21 21 21 21 21 20 19 19 19 19 20 21 22 21 21 21 21 22 23 23 24 24 24 24 23 23 23 23 24 25 27 29
14 14 13 13 12 10 10 10 10 10 11 11 11 12 12 12 12 11 11 11 12 12 12 12 12 12 13 13 13 13 13 14 13 13 12 12 12 12 13 14 15 16 16 18 22 24 21 18 20 22 22 22 22 21 22 23 22 22 21 21 20 21 22 23 23 24 24 24 24 24 24 24 25 26 26 26 25 24 24 24 24 24 24 25 27
15 15 13 12 11 9 9 10 10 11 12 12 13 13 13 14 14 14 13 13 13 13 12 12 12 12 13 14 14 14 14 14 13 12 11 11 13 14 14 15 15 15 15 16 20 24 23 21 21 22 23 22 23 23 23 23 23 23 24 24 22 23 24 25 26 26 26 28 28 27 26 26 27 28 28 28 27 27 26 27 27 26 25 25 26
16 15 13 12 10 8 7 9 10 11 13 13 13 14 15 15 15 15 14 14 14 13 13 12 12 13 13 14 15 14 14 15 13 11 11 12 13 14 14 14 16 16 15 16 18 21 22 22 22 23 23 21 21 24 25 25 24 23 23 23 22 23 25 26 27 26 26 28 29 28 27 29 30 30 29 30 30 30 29 29 29 28 27 27 28
17 15 13 12 9 7 7 9 11 11 13 14 15 16 17 17 17 16 15 15 15 14 13 13 13 13 14 15 16 15 14 15 14 12 13 14 15 15 15 16 17 17 17 17 18 20 22 22 21 22 23 22 23 25 27 27 26 24 22 21 21 24 25 27 28 27 26 27 28 27 28 30 32 31 31 30 31 32 32 30 29 29 30 32 32
18 16 14 13 11 11 11 11 12 14 14 15 16 17 19 19 19 19 17 16 15 14 14 14 13 14 15 16 17 15 14 15 15 14 15 16 17 17 17 18 18 18 18 18 18 20 21 21 22 22 23 24 25 26 27 26 26 25 24 22 22 25 26 26 27 27 26 27 27 27 27 29 30 32 33 32 31 31 33 33 31 30 32 35 37
19 16 17 17 16 16 14 12 14 16 17 17 17 18 19 20 20 20 17 16 16 16 15 14 13 14 16 17 17 16 15 16 16 16 16 17 18 18 19 19 19 19 20 21 20 20 20 21 23 24 24 25 26 26 25 25 26 27 27 25 24 25 25 25 24 26 27 27 27 25 25 27 31 35 37 35 33 34 36 37 35 36 37 37 39
19 19 22 23 21 20 17 19 23 22 20 19 18 18 19 20 21 21 18 16 16 17 16 15 15 16 17 17 17 17 17 17 18 18 17 18 18 19 20 21 21 21 22 22 21 21 20 20 21 24 25 25 25 25 24 25 27 28 28 27 25 23 24 25 26 27 27 27 27 26 25 28 31 33 33 33 34 36 37 39 40 42 42 40 41
26 32 35 31 27 24 21 23 29 29 24 20 19 20 20 20 21 21 19 18 17 17 17 16 16 16 17 17 18 18 18 18 19 19 19 19 19 18 20 21 21 22 23 22 20 19 19 19 20 22 25 26 26 25 26 26 26 26 26 26 25 25 27 28 28 27 25 26 28 28 27 28 30 30 30 32 37 39 40 43 43 43 43 43 43
40 45 45 39 35 33 28 25 29 31 26 21 21 22 21 20 21 21 20 19 18 18 18 17 17 17 17 17 18 18 18 18 19 19 19 20 21 20 21 21 22 22 22 22 20 18 19 20 20 21 23 25 25 24 24 24 24 25 26 27 28 30 30 28 27 26 27 29 31 30 28 26 27 28 31 36 42 43 42 43 42 41 43 42 41
48 48 46 43 42 41 36 30 30 31 28 24 23 24 23 22 21 21 21 21 19 19 18 18 18 17 17 17 18 18 19 19 20 20 21 22 23 23 23 23 23 24 25 26 23 21 22 22 22 22 23 23 22 23 24 24 24 26 27 27 29 29 29 29 29 30 30 32 34 33 29 26 28 32 36 42 44 40 36 37 38 38 40 40 40
51 47 44 44 45 45 39 32 28 29 29 27 24 24 24 22 20 20 20 21 20 20 20 20 19 18 18 18 19 21 21 21 22 23 24 25 25 25 24 23 23 25 27 29 26 24 25 24 24 25 23 21 22 24 26 27 27 27 26 26 27 29 32 33 33 31 30 32 33 31 28 28 34 41 44 43 39 34 33 36 37 38 40 44 45
52 48 44 44 46 46 43 36 29 27 29 29 26 24 25 23 20 19 19 20 21 21 21 21 21 22 22 22 23 25 24 22 24 26 27 26 25 24 23 22 23 25 27 29 29 27 26 26 27 28 26 25 26 26 27 30 29 27 26 27 28 29 30 32 32 31 29 29 29 29 31 35 39 42 43 39 34 32 34 37 40 42 45 48 49
55 51 47 46 46 46 44 39 32 29 30 30 27 25 24 22 20 19 19 19 20 22 23 24 24 24 25 24 26 27 25 24 25 26 26 27 24 22 21 22 24 25 27 28 29 29 28 27 29 31 30 29 30 29 29 30 29 27 29 31 31 29 28 30 33 31 27 26 28 32 37 38 37 39 42 37 32 33 35 39 43 47 48 49 50
55 53 51 49 48 46 43 37 31 29 30 29 26 24 24 22 21 19 19 18 20 22 24 25 25 26 26 27 28 28 28 27 26 26 29 30 26 21 20 22 24 26 26 27 28 29 30 30 31 32 32 31 32 32 30 28 28 29 30 31 31 30 29 31 33 31 29 27 28 31 35 33 31 34 37 35 33 35 39 43 46 47 49 50 50
53 53 52 51 49 47 43 37 31 28 28 27 25 24 24 24 22 21 19 19 20 22 23 24 26 27 27 28 27 28 29 29 28 30 31 29 24 21 22 23 25 26 25 26 26 26 27 29 29 28 27 27 29 31 31 30 31 32 32 32 33 32 31 32 32 31 29 25 24 30 35 33 30 33 35 34 36 39 41 44 47 49 51 52 50
49 51 50 50 50 46 40 35 32 29 28 26 24 24 26 27 25 22 21 21 22 23 24 25 27 28 28 28 29 29 29 29 30 30 28 24 22 23 24 25 26 26 24 24 23 22 24 27 28 28 27 28 29 32 33 34 35 36 34 33 32 30 29 29 28 27 26 24 24 31 38 37 33 35 37 36 37 40 42 47 53 56 54 51 48
45 49 49 49 49 42 34 34 36 33 29 27 26 27 28 28 27 25 24 23 24 25 26 27 28 28 28 29 30 30 29 30 30 27 22 21 23 24 24 24 24 24 23 23 23 24 26 29 32 32 32 31 30 31 32 32 32 31 28 25 24 23 23 24 25 26 27 27 27 30 37 39 36 36 38 36 38 45 51 56 58 57 52 47 43
33 39 42 44 45 39 34 36 37 33 31 31 30 29 28 27 27 28 27 25 26 26 27 27 27 28 29 30 30 30 28 28 26 23 21 22 23 24 24 22 21 22 22 22 23 24 26 28 31 32 31 30 30 29 28 27 24 21 20 20 20 20 22 25 27 29 30 30 30 30 34 39 41 39 38 39 43 52 58 59 56 51 48 45 40
22 26 29 29 32 33 33 35 33 31 31 32 28 26 27 28 29 30 27 26 26 25 24 25 27 28 29 29 29 29 27 25 23 22 22 23 23 23 22 21 21 22 21 20 20 21 23 26 28 28 26 27 29 27 25 22 19 18 21 23 21 20 24 28 29 32 34 33 32 31 33 40 45 42 40 44 51 56 57 55 53 50 47 45 40
19 22 21 20 22 25 27 29 29 28 27 27 25 26 29 32 31 29 26 24 23 22 22 23 26 27 28 27 27 25 23 21 22 22 23 23 22 20 20 20 20 20 19 18 18 20 24 27 26 22 20 21 23 22 21 21 20 21 23 24 22 22 26 29 30 33 35 34 31 31 35 41 44 42 40 44 52 57 57 53 52 50 46 44 39
Wind_Direction
239 242 248 249 253 253 250 258 258 257 257 255 253 255 261 268 275 284 288 292 295 300 305 312 317 320 328 333 332 327 318 312 305 293 280 272 274 272 262 258 258 254 244 238 244 244 237 230 220 214 214 217 222 224 223 222 225 230 230 227 228 228 229 231 226 224 227 233 237 238 236 233 234 238 240 243 246 251 254 256 257 257 256 257 255
236 238 240 242 244 247 253 262 264 263 262 259 258 261 265 267 277 283 288 294 296 299 305 312 317 324 334 336 334 328 318 313 308 298 286 273 267 270 266 256 253 254 249 242 241 242 244 240 228 221 221 220 222 226 227 228 231 236 238 236 236 232 228 233 235 232 230 232 236 240 242 241 239 239 242 245 247 250 254 257 260 260 258 256 255
233 234 235 237 240 247 256 257 254 260 265 263 269 273 275 282 289 293 296 300 303 304 309 317 325 334 338 337 338 337 326 316 308 300 292 280 267 264 266 257 250 252 250 247 243 239 242 245 239 231 230 229 227 228 229 230 232 237 241 241 241 239 233 233 236 237 237 236 237 239 242 244 245 244 245 246 249 251 254 258 261 264 263 259 256
232 231 232 236 241 246 256 259 257 264 271 267 275 286 291 299 304 306 306 306 308 307 314 324 331 338 340 336 337 339 330 321 314 300 292 289 280 269 265 261 251 249 250 251 248 242 239 240 240 238 238 238 236 237 236 232 232 238 241 240 241 242 240 237 235 236 237 238 240 241 241 243 246 247 249 250 252 255 257 259 261 264 265 263 260
233 232 234 241 246 250 260 269 269 268 274 276 282 294 300 305 310 314 313 310 310 308 317 327 327 333 339 334 335 336 329 328 324 306 299 299 292 278 271 268 258 251 250 251 252 249 245 241 239 238 240 242 242 243 244 241 236 237 237 237 241 244 244 244 241 239 237 236 237 239 241 242 245 246 249 252 254 257 259 261 262 262 263 264 263
233 233 237 248 255 257 261 265 266 268 276 282 287 295 298 303 309 312 310 310 311 310 318 322 319 326 332 334 338 335 333 332 324 315 312 302 293 287 281 275 269 265 258 255 256 253 250 247 242 240 243 247 248 246 247 248 243 237 235 238 244 245 245 247 248 246 242 238 235 235 236 238 242 245 248 252 254 257 259 262 263 262 261 260 261
236 238 243 251 256 259 259 259 264 272 280 284 288 292 293 298 304 307 307 308 309 312 316 315 317 321 328 335 337 338 342 334 326 333 326 313 310 304 295 284 277 274 269 263 261 259 256 253 248 243 246 249 249 247 246 247 249 248 247 245 245 245 244 244 247 248 247 245 242 239 236 235 237 240 243 247 252 256 258 261 263 265 263 261 261
242 244 246 251 255 256 259 267 275 282 287 288 291 292 290 296 302 304 305 306 307 310 311 311 314 318 327 333 334 341 347 334 333 341 331 336 346 327 320 309 288 274 270 269 266 264 262 260 257 252 249 250 249 248 243 244 250 255 258 255 251 248 244 244 248 250 249 249 249 248 245 240 238 240 241 242 245 250 255 258 261 263 265 264 262
247 249 251 255 256 257 264 272 278 282 286 288 290 290 290 297 301 304 305 305 305 306 308 308 308 314 324 325 328 342 345 340 347 343 338 350 356 348 350 349 339 312 275 268 268 271 270 266 265 262 257 253 252 251 248 246 250 253 257 258 257 256 253 249 249 250 251 252 253 253 251 248 245 244 244 244 243 243 248 253 257 259 262 264 264
254 256 258 259 257 261 269 273 278 281 285 289 291 291 291 297 301 304 302 301 299 298 301 301 301 308 315 308 318 339 341 345 360 3 360 352 352 360 359 357 360 360 344 233 244 266 272 272 272 272 267 260 257 256 253 253 255 257 258 259 259 261 260 255 251 250 250 254 256 254 253 253 250 247 246 246 246 245 244 246 251 254 256 259 263
258 260 262 264 265 267 270 275 281 282 285 291 292 289 293 300 303 299 295 293 290 288 289 293 296 304 307 297 307 331 333 344 10 15 20 360 352 3 359 359 2 357 360 24 240 251 259 269 278 274 266 264 264 263 261 261 262 262 262 262 262 263 262 259 258 254 253 256 258 255 253 256 256 253 251 249 249 250 247 245 245 248 252 255 258
259 263 266 269 271 270 271 277 280 280 286 290 288 289 297 303 304 299 294 289 287 287 285 288 297 302 301 290 294 314 321 341 30 22 15 4 349 356 3 357 356 350 348 350 339 308 266 263 266 264 266 274 276 273 272 271 269 268 266 265 264 264 262 260 260 260 259 257 256 255 255 257 257 255 254 253 252 252 250 249 248 246 248 251 254
260 265 269 272 272 268 271 278 279 279 285 288 290 295 299 304 306 304 299 287 281 286 287 292 301 300 298 295 292 296 312 348 23 15 6 7 357 8 28 14 2 354 342 325 301 298 296 272 258 259 271 283 287 289 290 286 283 279 274 269 265 264 263 260 259 260 260 256 252 253 254 255 256 252 251 252 253 252 251 250 251 250 248 248 250
261 264 269 273 269 266 272 275 275 279 286 292 298 299 300 305 307 303 298 283 272 271 280 296 304 302 299 290 281 263 261 341 347 337 10 13 18 29 45 37 24 22 8 354 324 299 287 277 271 267 269 271 276 286 293 290 289 289 285 279 271 266 264 262 259 255 255 255 255 255 254 254 254 252 250 250 251 253 252 250 251 253 253 252 251
258 262 266 266 264 268 273 272 274 285 292 297 298 296 299 306 301 290 280 282 287 279 279 290 295 301 294 279 279 275 260 240 291 292 6 9 18 28 44 40 18 31 51 42 18 340 307 291 286 277 269 266 267 272 276 277 283 288 288 287 282 273 266 263 261 255 254 256 256 255 254 252 252 251 251 252 253 253 253 251 250 251 252 253 254
253 257 258 257 262 265 266 271 285 293 293 291 286 283 292 292 281 279 270 272 290 291 291 295 284 286 287 285 285 273 258 205 276 279 275 355 21 10 29 39 14 13 29 31 24 7 345 325 316 308 293 282 275 272 272 275 283 288 285 284 283 280 275 268 264 260 257 256 254 252 252 252 252 252 253 255 256 255 254 252 251 251 251 251 253
250 253 253 258 258 252 260 278 290 291 283 274 269 267 271 266 262 270 269 263 265 278 291 297 290 274 272 288 280 268 308 22 293 276 280 309 5 2 22 30 5 1 3 360 2 7 1 339 333 334 327 319 308 297 290 285 285 285 283 282 280 278 276 271 268 265 261 259 255 252 252 251 252 252 253 255 256 256 255 252 250 251 251 252 253
245 247 252 257 250 250 266 280 284 280 268 261 261 258 259 261 263 264 261 262 255 259 279 285 291 293 269 266 264 282 332 338 322 326 307 289 316 332 11 15 3 6 5 1 359 0 355 335 329 328 326 327 326 322 318 310 304 295 289 287 283 278 274 270 267 265 264 263 260 256 253 252 252 251 252 254 255 255 254 253 252 252 252 253 254
243 243 247 246 245 256 268 275 276 269 257 254 251 247 252 252 258 259 254 262 260 253 265 271 281 292 261 225 220 240 279 327 354 356 334 311 299 293 333 350 355 4 3 6 359 343 337 330 324 320 318 317 319 324 326 321 321 318 312 307 298 289 282 275 269 266 263 262 260 259 258 256 255 253 253 254 255 255 255 255 254 254 255 255 255
239 239 241 240 247 257 264 272 274 261 247 244 239 237 245 246 249 254 250 255 257 246 239 242 254 262 243 216 212 240 274 327 349 352 327 308 297 280 294 319 329 332 343 355 340 332 334 332 329 327 320 314 313 316 317 314 315 316 316 317 316 310 301 292 283 276 269 264 261 260 259 259 258 257 257 258 258 257 256 255 255 254 254 254 254
234 234 235 236 246 254 261 272 270 253 236 230 231 233 236 235 234 240 248 252 257 254 240 231 233 245 244 223 208 250 324 309 310 337 330 299 298 295 296 306 307 306 319 327 324 329 327 325 333 339 332 322 318 315 310 308 307 306 304 304 308 308 308 306 301 296 287 277 270 265 263 262 261 260 260 260 260 259 258 257 256 256 255 254 253
230 231 233 236 246 252 262 268 255 233 224 218 223 232 236 233 230 235 246 254 264 265 249 242 240 243 250 238 208 237 290 285 302 313 311 302 300 297 297 303 304 305 304 295 307 314 304 314 327 322 320 321 317 315 308 303 303 304 305 303 300 298 298 300 300 300 298 293 286 280 275 271 268 266 263 262 261 260 260 260 259 258 258 256 254
231 231 234 236 245 253 258 254 233 222 221 219 222 228 234 235 233 240 248 254 266 274 269 263 256 253 257 255 238 242 266 262 265 277 286 294 294 295 299 304 304 306 301 296 308 310 297 307 308 289 305 306 290 296 298 302 302 300 303 305 303 299 294 292 292 294 294 294 292 289 287 285 282 278 273 269 266 263 261 260 259 259 259 258 257
232 227 229 226 233 248 251 239 225 222 219 217 223 217 214 228 232 236 241 244 250 260 264 264 261 258 260 261 255 255 260 258 258 263 269 275 281 288 294 299 300 300 302 303 310 307 290 294 286 276 292 293 283 288 299 310 306 299 300 299 300 301 297 292 289 288 289 290 291 290 289 288 288 286 284 280 276 273 268 264 261 259 258 257 257
227 219 221 222 224 238 251 245 233 226 218 216 221 218 212 221 229 228 231 240 244 245 251 261 266 262 254 254 257 265 267 263 261 262 268 275 278 281 285 292 294 295 300 299 301 299 289 287 280 273 283 290 286 290 300 308 300 302 305 299 297 297 298 296 290 287 287 287 288 287 288 288 288 289 287 285 283 280 278 274 269 265 262 259 257
229 225 226 228 227 233 252 255 243 232 225 220 223 225 221 219 224 224 222 232 237 237 240 245 256 260 257 259 261 266 267 266 266 267 272 276 278 282 287 291 292 294 296 293 295 298 295 290 280 273 283 295 297 296 299 299 294 298 303 301 299 297 295 295 291 288 286 286 286 285 284 285 286 289 290 290 287 284 282 279 276 273 269 265 261
234 234 235 233 229 239 255 257 246 238 231 226 226 230 233 228 227 225 220 228 236 240 245 245 251 256 257 263 266 266 268 269 269 271 273 273 273 277 283 289 295 297 296 293 293 293 295 296 289 277 275 283 293 300 301 300 295 295 298 301 302 300 298 293 287 284 283 284 286 286 283 281 282 287 291 293 291 289 286 282 279 276 273 271 267
244 240 241 241 237 247 256 253 245 241 234 232 227 227 235 235 235 236 232 238 248 250 255 259 260 261 261 266 268 266 265 268 272 276 277 278 279 282 286 289 292 296 298 297 294 293 296 300 297 287 279 282 289 292 296 300 299 300 304 304 302 300 300 296 288 282 281 284 287 288 287 282 282 287 292 295 295 293 290 286 282 279 275 272 270
249 245 243 250 253 254 254 246 240 237 233 238 235 227 232 234 239 247 245 245 255 258 258 260 262 263 265 269 272 272 271 274 278 279 278 281 285 288 291 293 294 296 298 297 295 294 295 296 296 291 289 293 292 288 295 299 299 302 306 303 301 299 299 299 295 289 285 284 287 290 290 287 287 290 294 298 300 298 295 291 287 283 278 274 270
246 247 244 250 258 259 254 247 242 238 231 236 240 234 234 235 239 249 252 247 252 258 262 264 267 268 268 268 270 274 276 276 275 274 277 283 288 292 293 294 295 296 297 297 295 291 291 291 291 288 289 293 293 289 293 296 296 301 303 300 298 298 297 297 297 294 291 287 286 288 291 292 292 294 297 300 301 301 299 296 293 289 285 280 274
245 245 242 247 257 260 258 253 246 243 237 235 241 241 239 241 243 249 256 256 253 255 261 266 269 269 268 266 265 267 269 268 268 272 278 283 286 288 288 291 294 295 298 297 294 292 292 290 290 291 289 291 292 292 294 295 296 300 301 297 295 294 295 295 295 294 292 289 287 288 290 293 295 298 300 301 301 300 300 299 297 295 292 288 283
246 245 240 243 251 255 253 248 240 241 244 239 240 246 248 251 251 250 253 256 255 255 257 261 263 264 266 266 265 264 266 267 270 276 279 281 284 286 286 290 292 292 292 291 292 296 297 292 291 294 294 292 293 295 297 298 298 299 299 298 295 295 297 298 298 298 296 295 293 291 291 293 297 300 302 303 302 300 301 302 300 298 296 294 290
245 246 241 239 245 248 244 242 243 250 256 251 246 250 255 259 260 258 256 254 253 254 256 258 257 258 263 266 266 264 264 266 270 274 277 280 285 287 289 292 294 292 286 283 289 296 299 298 296 296 297 296 296 298 300 299 299 300 298 297 296 297 299 300 301 301 300 301 300 297 293 294 298 302 303 304 303 302 303 304 304 301 297 296 295
244 246 241 236 236 239 243 250 258 265 268 264 257 255 256 258 259 260 259 257 255 253 254 257 257 258 261 263 264 262 262 267 270 270 273 277 282 286 287 289 293 295 291 285 287 292 296 299 299 299 300 298 295 299 301 301 302 301 296 294 294 296 299 301 302 300 297 298 300 298 295 297 299 301 302 301 300 300 302 305 305 304 302 300 299
241 242 236 233 228 221 235 255 262 266 269 267 262 260 259 258 257 256 255 254 254 251 251 254 256 260 263 262 263 263 262 265 267 268 273 279 286 291 291 293 295 298 299 295 289 290 295 298 298 299 300 298 296 299 303 304 304 302 295 290 290 294 299 300 300 296 291 292 296 296 295 296 296 296 297 295 294 295 298 302 305 305 306 307 305
239 237 229 226 225 223 230 250 259 258 261 264 262 259 260 259 258 258 256 253 253 251 249 251 254 259 262 261 262 263 260 261 263 267 274 282 289 292 295 298 296 294 298 299 292 290 292 295 297 297 297 299 300 301 304 305 305 304 299 292 291 295 298 299 299 296 294 295 296 296 296 295 297 301 302 298 296 298 301 304 305 305 306 307 306
235 234 231 227 224 225 232 258 272 266 260 258 258 257 259 261 261 260 256 252 252 252 250 252 255 256 257 259 260 261 261 262 263 268 273 282 290 294 298 302 301 296 295 295 294 292 287 288 295 299 297 298 300 301 301 302 302 304 302 296 294 295 297 298 298 298 298 299 297 295 296 297 299 304 306 304 303 306 308 306 306 306 305 305 306
238 242 244 239 232 230 237 258 270 271 264 254 252 254 255 258 262 262 258 252 251 252 253 255 257 258 260 261 261 260 260 262 266 271 275 281 288 292 298 304 307 305 298 291 290 290 286 283 289 294 296 296 296 297 300 300 300 301 300 296 293 293 295 298 298 297 298 297 295 292 291 292 294 299 303 303 304 305 306 305 304 305 303 304 310
244 248 246 240 237 240 247 256 260 262 263 253 246 249 251 253 259 263 260 254 253 254 256 256 257 259 262 264 265 265 264 265 268 273 280 286 289 292 296 300 302 303 299 291 285 284 283 281 283 289 293 293 291 295 302 303 299 298 298 295 292 292 295 297 297 297 296 296 295 293 292 292 294 299 300 301 303 304 304 302 300 301 301 303 310
244 246 243 238 237 240 245 251 252 254 257 252 243 244 246 249 256 262 261 258 257 257 258 258 258 261 264 265 266 267 267 269 274 280 285 287 289 291 293 294 296 298 297 292 287 283 282 282 283 285 288 291 291 293 300 300 295 296 298 295 292 293 295 296 294 294 296 296 295 294 292 290 291 293 294 297 302 302 299 298 297 298 301 302 304
242 242 242 241 240 239 240 245 248 251 254 252 246 242 241 245 253 261 263 263 261 259 258 259 261 264 267 269 269 271 271 274 281 287 286 284 285 287 289 291 294 298 297 294 290 285 284 285 285 285 287 290 291 292 296 297 294 297 299 296 294 294 296 295 293 295 297 297 297 295 292 289 291 296 298 300 302 300 295 294 294 295 296 294 294
240 240 240 242 241 240 242 245 247 249 252 253 251 244 239 241 247 254 260 265 266 265 263 262 263 265 268 270 273 275 275 278 284 288 287 286 285 283 284 287 290 294 294 293 289 285 285 287 287 287 287 287 290 293 296 299 299 301 301 298 296 297 298 299 297 297 298 299 298 294 290 294 300 304 305 303 301 298 294 292 292 292 292 290 290
241 242 240 241 242 243 244 246 246 246 251 254 252 244 238 237 239 246 255 263 269 271 269 266 266 270 274 275 276 279 282 286 290 292 294 294 289 280 279 282 285 288 289 289 287 284 285 286 287 288 288 289 293 295 296 300 302 302 300 299 298 298 300 301 300 298 299 300 297 291 292 299 305 307 307 303 298 295 293 292 292 294 295 293 290
240 243 241 241 243 245 245 245 244 244 249 252 248 240 235 233 235 241 249 258 266 271 270 267 267 271 275 278 279 283 287 289 292 297 299 296 288 276 274 279 284 286 285 284 284 284 285 287 288 290 291 292 295 297 298 300 300 300 299 298 299 298 296 297 297 298 298 297 294 292 294 300 306 307 305 302 298 294 294 295 296 295 295 292 288
238 242 242 242 244 246 245 244 243 242 245 246 241 234 231 231 231 235 244 254 260 265 268 268 268 270 274 278 279 282 285 286 293 300 299 295 287 276 277 283 286 287 285 281 281 282 284 286 287 288 291 294 296 298 300 299 298 299 299 297 299 299 296 294 295 295 293 292 291 292 293 297 303 304 301 299 297 294 294 297 298 294 291 290 287
239 241 243 243 244 247 246 242 240 240 240 240 236 230 227 229 230 231 240 251 257 261 264 265 266 269 273 277 280 282 283 287 294 297 295 293 289 285 286 288 288 290 287 285 286 287 287 289 288 289 291 292 293 296 298 296 294 294 295 295 297 297 294 292 291 291 291 292 293 291 289 293 300 300 297 296 296 295 294 297 301 299 294 293 292
241 241 242 243 245 246 245 239 236 236 238 236 231 227 227 230 231 234 243 253 257 259 261 263 266 269 273 277 279 281 283 288 291 291 289 289 288 288 288 286 287 290 288 284 285 285 285 288 287 286 287 289 290 293 294 293 292 291 291 292 293 292 290 290 291 291 292 293 293 290 288 292 299 298 295 295 295 296 297 300 304 305 301 298 296
240 241 241 244 246 246 242 238 235 235 235 231 227 227 229 231 234 239 248 257 261 261 262 264 267 270 275 279 280 280 284 288 289 287 286 287 288 287 286 285 287 289 288 284 281 281 282 283 283 284 287 290 293 293 293 293 292 292 293 292 290 290 291 291 292 292 292 292 292 290 289 293 299 298 295 295 297 300 303 306 308 307 305 303 301
238 241 243 246 248 247 247 245 239 235 236 232 228 227 228 232 238 243 248 259 265 263 263 267 271 275 280 280 278 279 285 288 287 286 286 288 288 286 284 285 285 285 285 283 283 288 289 286 287 292 296 299 301 300 299 296 291 292 298 297 293 292 293 291 292 293 294 293 293 291 289 295 302 302 297 298 301 304 306 309 309 307 306 306 304
236 240 242 246 248 246 249 249 240 234 236 234 227 225 229 237 245 245 249 261 267 266 269 275 277 279 279 277 275 278 284 287 285 285 288 288 287 285 283 283 284 283 284 285 286 290 289 288 293 298 302 305 306 305 305 302 295 295 300 298 294 292 292 292 293 296 296 293 294 296 296 299 305 306 302 303 306 306 307 308 309 308 307 307 305
238 239 238 241 242 241 246 246 235 231 237 235 223 222 233 242 246 246 253 265 271 271 275 277 278 278 279 278 279 280 282 283 283 285 287 286 285 283 282 282 283 282 283 284 286 287 288 291 295 297 298 301 303 305 308 308 303 301 300 298 295 293 293 294 295 297 297 295 297 300 300 302 305 305 305 308 308 307 307 309 310 308 305 304 303